DW1345 Weather Reports


time (UTC)temp
C
wind
direction
speed
KPH
gust
KPH
rain 1hr
cm
rain 24hr
cm
rain mn
cm
humidity
%
barometer
mb
20260503011532 0 285 3.2 0.0 0.00 0.00 0.05 93 1004.4
20260503010024 0 313 1.6 0.0 0.00 0.00 0.05 93 1004.5
20260503004524 0 234 3.2 0.0 0.00 0.00 0.05 93 1004.4
20260503003023 0 240 3.2 0.0 0.00 0.00 0.05 93 1004.6
20260503001522 0 284 3.2 0.0 0.00 0.00 0.05 93 1004.7
20260503000020 0 288 8.0 0.0 0.00 0.00 0.05 93 1004.6
20260502234531 0 299 6.4 0.0 0.00 0.00 0.05 92 1004.6
20260502233016 1 254 8.0 0.0 0.00 0.00 0.05 93 1004.4
20260502231515 1 272 8.0 0.0 0.00 0.00 0.03 92 1004.4
20260502230015 1 292 6.4 0.0 0.00 0.00 0.03 93 1004.5
20260502224512 1 201 3.2 0.0 0.00 0.00 0.00 92 1004.5
20260502223007 1 197 1.6 0.0 0.00 0.00 0.00 92 1004.5
20260502221505 1 249 0.0 0.0 0.00 0.00 0.00 92 1004.5
20260502220010 1 250 1.6 0.0 0.00 0.00 0.89 92 1004.7
20260502214502 1 242 1.6 0.0 0.00 0.00 0.89 91 1004.7
20260502213001 1 246 1.6 0.0 0.00 0.00 0.89 91 1004.7
20260502211600 1 346 0.0 0.0 0.00 0.00 0.89 90 1004.8
20260502210108 1 346 0.0 0.0 0.00 0.00 0.89 90 1004.7
20260502204609 1 346 0.0 0.0 0.00 0.00 0.89 91 1004.8
20260502203112 1 346 0.0 0.0 0.00 0.00 0.89 91 1004.8
20260502201557 1 346 0.0 0.0 0.00 0.00 0.89 90 1004.9
20260502200056 1 346 0.0 0.0 0.00 0.00 0.89 90 1004.9
20260502194556 1 346 0.0 0.0 0.00 0.00 0.89 90 1004.9
20260502193052 1 325 3.2 0.0 0.00 0.00 0.89 90 1004.5
20260502191553 1 289 0.0 0.0 0.00 0.00 0.86 89 1004.4
20260502184548 1 288 4.8 0.0 0.00 0.00 0.84 88 1004.5
20260502183056 1 302 3.2 0.0 0.00 0.00 0.84 87 1004.3
20260502181544 2 294 8.0 0.0 0.00 0.00 0.81 86 1004.2
20260502163100 4 309 6.4 0.0 0.00 0.00 0.79 74 1004.0
20260502161534 4 315 8.0 0.0 0.00 0.00 0.79 72 1004.0
20260502151536 5 289 4.8 0.0 0.00 0.00 0.79 70 1003.7
20260502123022 4 295 4.8 0.0 0.00 0.00 0.79 88 1002.9
20260502121520 4 279 4.8 0.0 0.00 0.00 0.79 88 1002.8
20260502114518 4 273 4.8 0.0 0.00 0.00 0.79 90 1002.6
20260502113019 3 230 4.8 0.0 0.00 0.00 0.79 89 1002.5
20260502111515 3 265 4.8 0.0 0.00 0.00 0.79 90 1002.3
20260502110015 3 240 8.0 0.0 0.00 0.00 0.79 90 1002.2
20260502104513 3 279 6.4 0.0 0.00 0.00 0.76 91 1002.0
20260502103012 3 287 9.7 0.0 0.00 0.00 0.76 90 1001.8
20260502101509 4 292 12.9 0.0 0.00 0.00 0.76 90 1001.6
20260502091506 3 227 14.5 0.0 0.00 0.00 0.71 88 1001.1
20260502070101 3 248 11.3 0.0 0.00 0.00 0.51 89 999.5
20260502064558 3 278 14.5 0.0 0.00 0.00 0.51 90 999.4
20260502063058 3 265 17.7 0.0 0.00 0.00 0.48 88 999.5
20260502061554 3 265 19.3 0.0 0.00 0.00 0.43 81 999.2
20260502060100 6 261 16.1 0.0 0.00 0.00 0.41 75 998.4
20260502054555 6 228 16.1 0.0 0.00 0.00 0.41 73 998.5
20260502053051 6 228 17.7 0.0 0.00 0.00 0.41 75 998.7
20260502051550 6 281 20.9 0.0 0.00 0.00 0.41 76 998.6
20260502050049 6 253 22.5 0.0 0.00 0.00 0.41 77 998.5
20260502044552 5 258 17.7 0.0 0.00 0.00 0.41 79 998.5
20260502043051 5 298 16.1 0.0 0.00 0.00 0.41 81 998.5
20260502041548 5 284 9.7 0.0 0.00 0.00 0.41 88 998.2
20260502040042 5 237 17.7 0.0 0.00 0.00 0.41 89 998.1
20260502034540 5 260 16.1 0.0 0.00 0.00 0.38 89 998.0
20260502033040 6 286 16.1 0.0 0.00 0.00 0.36 90 997.9
20260502031532 6 202 6.4 0.0 0.00 0.00 0.30 90 997.2
20260502030032 6 184 6.4 0.0 0.00 0.00 0.28 89 997.3
20260502024529 6 194 6.4 0.0 0.00 0.00 0.25 89 997.5
20260502023027 6 253 8.0 0.0 0.00 0.00 0.23 89 998.0
20260502021524 6 215 9.7 0.0 0.00 0.00 0.23 88 998.4
20260502020022 6 239 12.9 0.0 0.00 0.00 0.20 88 998.6
20260502014544 7 244 19.3 0.0 0.00 0.00 0.15 88 998.9
20260502013019 6 263 12.9 0.0 0.00 0.00 0.15 88 999.0